Wind_Speed
33 33 33 33 35 34 39 36 40 40 39 39 40 43 42 40 42 42 38 41 40 43 45 46 46 48 47 44 42 36 26 25 26 16 16 19 24 26 30 30 28 33 33 33 33 34 36
38 39 40 41 41 42 44 44 45 44 43 44 45 47 48 44 45 44 41 43 42 45 47 48 49 51 53 59 42 35 37 31 27 26 27 29 31 32 31 32 37 34 33 36 37 39 39
45 44 45 46 47 47 48 48 49 49 49 45 45 46 48 47 47 45 45 43 43 46 47 47 48 52 60 59 43 39 39 34 37 41 40 29 27 33 34 35 33 31 33 33 35 34 37
49 49 50 50 49 50 49 49 52 50 47 46 43 44 41 42 41 41 43 41 40 41 43 42 45 51 64 56 43 34 30 23 30 33 34 28 23 24 30 35 36 35 38 42 36 34 30
54 57 58 56 54 55 56 54 51 47 46 45 44 43 41 45 43 41 39 41 42 41 41 42 48 49 64 46 33 29 36 22 18 23 27 29 26 25 25 29 33 38 41 34 40 35 30
56 62 55 56 60 63 63 61 52 48 50 48 45 46 49 48 44 41 42 46 46 46 48 48 50 49 54 21 10 6 11 11 19 27 28 26 27 29 26 27 31 36 32 38 36 31 31
51 55 54 54 56 62 60 58 56 52 52 54 50 48 48 44 43 41 40 39 41 44 51 52 50 56 56 46 49 42 38 38 30 35 38 33 36 38 41 42 40 38 39 42 33 24 36
55 52 52 55 55 56 56 52 51 52 53 53 50 50 46 50 43 39 42 43 40 44 53 55 55 58 53 47 54 54 49 44 44 50 43 45 61 52 51 50 45 42 43 45 42 40 38
55 56 55 53 54 54 54 54 55 55 53 51 52 49 50 49 47 46 42 42 37 37 46 63 58 58 54 51 56 54 42 41 46 49 50 56 66 32 28 41 50 51 49 45 44 28 35
62 62 60 59 58 59 60 59 57 56 54 52 51 50 49 45 48 46 44 38 36 34 30 57 45 52 47 37 44 36 30 35 45 52 51 55 64 60 49 47 41 46 42 44 38 22 20
54 55 57 58 58 54 50 50 52 50 50 50 49 49 51 49 47 45 40 37 35 30 7 18 22 31 29 26 22 23 21 23 33 39 30 50 46 37 45 66 42 48 32 31 29 27 21
49 50 50 48 46 46 46 47 48 48 49 46 42 34 34 37 41 41 39 30 29 19 9 15 24 21 25 26 25 27 22 22 26 38 41 48 33 24 35 30 48 36 26 20 19 15 9
50 50 49 46 44 44 44 45 45 43 41 41 42 30 27 26 31 30 27 26 24 13 16 23 32 26 25 27 27 31 29 29 29 23 40 40 49 47 32 24 24 35 24 6 9 11 11
31 32 32 33 38 43 46 46 39 45 38 40 40 42 37 32 29 33 34 30 22 19 40 22 11 15 27 31 36 30 32 33 34 32 19 21 14 28 34 44 26 40 45 16 11 9 10
28 28 28 28 30 30 31 27 34 34 31 40 37 36 34 35 33 34 27 25 15 26 20 26 37 33 23 28 29 21 27 39 41 41 32 17 23 24 23 19 36 25 34 49 19 8 2
26 27 28 28 29 30 30 26 23 26 31 39 35 32 34 31 32 30 33 37 27 19 26 17 18 25 30 42 29 24 27 25 32 41 40 37 25 34 23 20 25 35 27 16 24 7 8
27 26 27 29 29 29 29 29 27 25 25 35 32 39 33 21 20 28 36 31 30 41 42 33 28 23 23 21 25 30 34 34 31 28 34 41 33 31 24 35 38 31 31 20 21 22 9
26 27 28 28 28 28 28 29 27 24 24 25 28 31 29 38 22 24 33 35 32 36 39 35 25 25 23 25 26 30 20 19 20 5 25 19 9 24 48 39 36 38 45 47 21 14 21
32 32 32 32 32 31 30 29 27 25 24 26 25 25 22 25 30 33 34 34 34 34 33 27 30 30 23 33 19 16 21 15 18 30 17 18 7 5 12 22 29 32 38 42 40 28 25
37 38 39 39 38 37 34 32 31 26 25 26 24 23 22 26 32 34 33 34 29 27 25 16 17 11 12 12 16 16 30 35 33 34 28 29 32 25 21 23 23 27 25 21 26 24 31
35 35 35 38 39 40 38 35 33 29 25 29 26 28 26 14 25 30 36 23 24 25 22 22 23 20 14 8 15 11 17 27 35 37 32 25 20 23 30 38 42 39 30 29 27 29 16
37 38 37 36 36 35 35 33 30 28 27 28 30 29 26 25 12 21 20 20 11 11 17 21 22 17 19 22 19 22 21 22 28 34 34 33 30 37 47 43 43 39 42 37 29 33 34
42 38 36 35 34 34 32 32 33 30 32 33 35 31 29 18 17 17 21 22 24 18 18 18 17 20 23 24 25 26 26 27 29 31 36 33 20 23 28 27 33 27 47 43 33 34 29
38 38 38 37 33 30 28 26 29 31 36 32 36 24 29 30 18 12 14 13 15 16 20 23 24 26 28 26 29 30 31 32 34 31 32 37 31 19 20 21 9 8 8 24 42 35 35
36 34 32 32 29 28 25 24 26 29 33 32 32 34 27 27 25 21 20 19 17 17 21 22 23 21 20 20 21 20 19 22 29 30 30 33 29 19 11 18 20 25 19 14 20 20 24
28 26 24 24 25 25 27 28 24 25 32 32 31 31 28 19 20 17 13 11 13 12 13 13 10 9 9 12 9 11 10 17 9 10 11 15 24 27 11 6 5 5 15 16 15 7 9
18 17 20 17 18 18 19 18 18 21 23 24 28 25 24 24 18 10 10 10 9 7 4 4 4 3 5 7 8 8 8 7 7 7 7 12 24 30 23 9 9 11 11 15 12 4 11
8 5 6 6 12 11 16 17 17 18 19 21 25 23 24 20 13 13 11 13 10 3 4 3 2 3 3 4 3 4 6 9 11 11 9 8 12 3 15 13 3 9 15 17 11 11 11
5 2 2 7 11 12 12 14 15 19 20 26 25 22 20 17 9 10 11 12 14 12 10 7 5 4 2 2 4 4 6 6 13 7 15 6 12 10 9 7 7 7 14 18 18 16 12
Wind_Direction
259 260 262 265 268 274 278 279 280 284 285 285 285 285 281 280 281 281 283 282 284 286 287 288 291 292 291 288 295 300 300 288 272 248 268 271 273 269 261 262 261 266 268 269 273 273 273
262 262 266 268 272 274 276 280 280 282 284 286 285 284 280 278 277 279 280 281 283 284 286 288 291 291 289 286 297 293 287 286 278 251 276 278 277 263 264 264 264 267 273 274 272 271 271
263 264 266 269 272 273 276 278 281 282 281 283 285 282 280 279 278 280 281 281 282 282 283 287 288 289 286 288 297 292 293 277 259 255 268 277 271 254 263 269 269 269 273 277 273 277 275
265 268 269 270 272 273 274 276 279 280 277 281 280 281 278 278 279 281 281 281 281 281 282 284 287 285 284 292 303 301 282 279 256 249 257 260 266 262 253 253 258 266 273 275 279 281 281
268 267 269 271 273 274 275 276 278 274 275 275 277 274 275 279 279 281 279 283 281 279 278 281 281 282 286 298 306 284 272 271 263 233 234 243 255 262 258 251 258 262 262 264 278 281 280
272 273 271 272 275 275 276 277 277 274 274 272 274 272 276 277 275 276 280 277 278 278 277 277 274 280 280 294 302 281 307 289 276 251 230 241 255 261 251 244 238 252 253 269 269 282 282
274 270 269 272 270 274 270 270 269 272 272 276 274 271 273 271 274 277 282 278 277 277 276 277 277 274 278 283 280 264 257 264 260 260 245 245 263 251 266 267 272 268 266 266 266 266 281
269 266 266 271 266 267 269 268 267 269 270 269 271 275 268 274 281 281 281 275 282 286 284 277 276 274 275 281 275 268 270 265 261 259 250 252 255 258 271 274 264 259 259 259 266 269 273
269 271 266 263 263 264 266 267 270 269 269 269 273 272 266 272 275 278 273 274 279 278 277 280 277 275 278 275 275 275 266 258 254 256 247 246 260 267 265 263 251 252 251 256 260 265 269
266 268 265 264 263 265 270 273 273 274 274 272 266 265 266 267 272 271 270 268 268 270 266 274 272 275 272 274 273 278 261 244 245 248 247 249 261 254 252 255 245 251 251 256 254 255 259
257 258 257 256 258 259 261 264 265 263 267 267 263 265 267 263 269 266 266 263 261 262 257 266 261 251 257 251 259 267 260 234 241 244 233 251 254 253 246 252 240 251 248 248 258 247 257
261 260 259 259 260 261 262 264 265 263 262 263 252 247 256 259 260 264 262 259 258 231 234 233 253 251 247 254 248 244 242 233 239 233 240 248 245 249 253 254 241 243 246 235 229 222 225
265 260 258 258 261 261 261 262 261 256 260 258 250 235 222 231 242 243 241 234 221 212 228 247 247 254 261 258 252 240 237 236 228 203 233 247 249 242 244 246 223 223 217 214 224 207 229
281 283 281 281 281 283 274 267 266 263 262 264 257 248 255 240 246 253 251 245 244 239 229 237 231 241 256 261 261 250 240 243 244 241 238 219 252 242 242 234 219 213 209 213 222 222 242
282 281 280 281 279 277 276 284 281 275 273 263 260 257 260 262 255 248 244 239 236 245 251 241 245 255 252 252 254 253 246 250 250 244 230 235 245 258 247 251 222 210 208 232 256 240 200
282 283 282 280 280 281 282 280 277 264 250 259 259 250 241 250 250 252 249 241 245 240 246 248 250 247 251 251 245 247 244 255 257 252 251 245 260 255 250 224 228 217 224 209 217 212 228
283 282 281 281 278 277 277 277 275 271 265 264 271 274 261 267 255 241 236 243 256 257 258 275 278 273 279 281 248 248 254 258 263 244 238 240 237 245 235 225 229 207 224 216 222 215 234
286 283 282 278 276 276 275 273 271 268 267 268 274 272 271 256 254 253 248 255 260 262 266 266 269 262 273 273 267 284 266 231 242 242 286 255 247 245 239 241 238 232 229 210 206 197 223
283 281 278 276 274 272 271 270 267 264 262 268 271 271 264 261 246 262 263 252 256 260 265 259 256 263 267 280 293 279 280 284 292 316 303 306 273 333 294 225 232 224 221 217 219 225 213
278 278 277 273 271 268 266 264 262 256 248 258 263 267 264 259 259 256 250 250 245 258 262 263 258 242 262 281 274 272 288 295 304 309 305 292 255 250 250 265 284 289 294 264 223 216 223
286 282 276 273 271 268 267 265 262 254 240 244 250 253 258 248 250 245 235 242 253 240 254 274 277 277 277 276 289 291 298 298 299 301 297 293 289 282 269 272 277 272 267 261 261 272 240
286 282 280 278 273 266 260 260 253 244 240 235 244 243 248 236 212 225 228 247 236 257 263 268 267 273 272 273 280 288 298 300 298 296 302 297 287 290 295 270 258 252 259 252 257 256 244
282 278 275 276 274 268 263 251 248 240 227 230 240 239 239 233 248 241 247 255 261 261 256 258 267 270 270 277 283 285 279 279 281 288 295 293 284 285 286 320 257 233 236 239 247 236 226
284 278 270 270 267 265 262 247 241 234 226 232 234 243 237 248 232 232 251 260 254 283 266 263 264 266 277 282 283 281 280 275 267 270 274 277 273 268 275 287 233 289 280 247 238 244 251
283 275 270 264 260 256 253 239 239 229 225 228 225 230 238 244 250 249 256 267 270 268 269 271 269 273 266 277 288 292 285 276 269 269 261 266 252 246 246 250 261 271 290 261 230 249 232
283 271 264 259 251 248 240 230 231 226 224 230 222 218 241 238 243 249 253 255 262 271 272 267 259 281 241 273 286 265 270 276 270 266 277 261 237 228 229 262 240 245 214 213 216 230 184
284 265 253 252 245 238 229 214 214 227 226 229 213 212 228 240 233 236 222 238 232 245 240 176 194 210 235 262 273 284 279 335 290 303 314 284 220 223 228 238 261 240 214 187 190 202 196
307 270 229 217 213 196 188 203 207 202 207 217 200 207 224 214 220 218 228 222 225 238 223 253 274 260 295 293 306 326 324 338 339 342 345 352 326 222 222 217 211 210 169 181 179 156 158
30 50 136 172 171 173 184 196 198 194 202 201 212 219 206 210 212 221 232 245 249 236 239 258 248 271 253 346 337 332 318 338 343 340 350 7 3 348 353 20 48 41 158 169 168 171 194
Height
3116 3116 3117 3117 3118 3116 3118 3115 3117 3117 3117 3116 3116 3117 3115 3115 3116 3115 3113 3114 3112 3109 3106 3104 3102 3098 3098 3099 3104 3109 3103 3099 3097 3097 3096 3096 3094 3093 3092 3091 3091 3087 3089 3090 3089 3089 3088
3108 3109 3109 3110 3109 3108 3108 3108 3108 3108 3108 3108 3108 3108 3108 3105 3106 3106 3104 3104 3103 3102 3098 3096 3094 3089 3085 3081 3098 3099 3096 3096 3094 3090 3089 3089 3088 3086 3085 3084 3083 3082 3081 3080 3081 3081 3079
3100 3100 3100 3099 3099 3099 3099 3099 3099 3098 3099 3097 3098 3097 3097 3096 3096 3096 3095 3094 3094 3092 3089 3088 3085 3079 3068 3072 3087 3085 3084 3085 3082 3083 3082 3083 3079 3077 3079 3078 3076 3076 3073 3073 3072 3072 3072
3090 3089 3089 3089 3089 3089 3088 3088 3088 3088 3087 3087 3087 3087 3087 3086 3086 3085 3086 3085 3083 3082 3080 3080 3077 3071 3052 3062 3076 3074 3071 3071 3069 3072 3075 3074 3073 3072 3069 3071 3071 3070 3067 3061 3062 3066 3066
3078 3078 3077 3077 3077 3077 3077 3077 3077 3076 3076 3077 3077 3077 3077 3077 3076 3076 3076 3076 3074 3073 3071 3071 3067 3065 3043 3055 3065 3065 3061 3065 3064 3065 3066 3066 3065 3064 3064 3065 3065 3062 3051 3053 3054 3059 3060
3064 3064 3064 3064 3064 3065 3065 3065 3065 3066 3066 3066 3066 3066 3066 3067 3067 3067 3067 3065 3063 3062 3063 3061 3057 3058 3044 3055 3055 3058 3057 3060 3061 3062 3061 3061 3057 3052 3055 3062 3051 3048 3048 3046 3047 3056 3051
3050 3050 3050 3051 3051 3051 3051 3052 3053 3054 3055 3055 3055 3055 3055 3056 3056 3057 3057 3056 3055 3053 3049 3049 3046 3040 3038 3046 3045 3046 3054 3053 3054 3054 3053 3055 3048 3037 3041 3043 3046 3049 3045 3039 3041 3045 3047
3037 3038 3038 3038 3038 3039 3039 3040 3041 3042 3042 3042 3043 3043 3045 3045 3046 3047 3046 3044 3047 3046 3032 3028 3030 3024 3030 3036 3026 3029 3039 3042 3042 3037 3047 3044 3023 3034 3036 3036 3036 3036 3033 3029 3032 3038 3040
3024 3025 3026 3025 3025 3025 3027 3028 3028 3029 3029 3030 3031 3032 3033 3033 3034 3036 3035 3037 3036 3035 3028 3009 3011 3012 3016 3019 3012 3013 3024 3026 3024 3024 3030 3030 2998 3030 3026 3022 3021 3020 3021 3026 3027 3031 3030
3008 3010 3011 3012 3012 3013 3014 3015 3015 3015 3016 3018 3018 3019 3020 3021 3023 3022 3024 3028 3026 3028 3020 2999 2995 2994 2998 3001 2997 3003 3005 3010 3009 3005 3017 3013 2998 3012 3017 3009 3016 3008 3012 3021 3023 3027 3023
2995 2994 2995 2996 2997 2999 3000 3002 3003 3004 3003 3003 3005 3006 3007 3008 3009 3011 3014 3016 3018 3019 3006 2997 2989 2987 2991 2991 2993 2992 2995 2994 2994 2997 3002 2991 2995 2998 2998 2990 3009 2998 3008 3012 3017 3018 3019
2984 2984 2983 2983 2984 2985 2986 2989 2991 2990 2992 2994 2992 2994 2996 2995 2996 2999 3003 3006 3008 3005 2989 2987 2983 2981 2984 2984 2986 2985 2987 2989 2990 2991 2989 2986 2992 2990 2988 2991 2997 3006 3009 3009 3010 3012 3011
2972 2972 2972 2972 2973 2974 2975 2976 2978 2979 2979 2981 2983 2983 2983 2986 2988 2989 2993 2996 2992 2978 2979 2978 2977 2977 2980 2978 2978 2978 2980 2980 2980 2982 2979 2981 2975 2981 2987 2985 2989 2997 3005 3004 3001 2994 2985
2963 2962 2960 2962 2962 2961 2963 2965 2966 2966 2969 2968 2971 2973 2973 2976 2980 2981 2985 2986 2972 2963 2967 2970 2971 2972 2972 2974 2970 2973 2973 2974 2974 2973 2974 2971 2969 2969 2970 2973 2976 2975 2987 2986 2976 2975 2977
2957 2955 2953 2953 2954 2953 2953 2953 2952 2955 2960 2959 2960 2960 2961 2967 2970 2971 2971 2965 2959 2961 2963 2962 2964 2964 2965 2966 2967 2968 2962 2963 2965 2966 2969 2965 2960 2960 2962 2968 2967 2971 2974 2965 2974 2973 2974
2948 2948 2947 2946 2946 2946 2946 2945 2946 2947 2948 2950 2949 2949 2950 2954 2960 2961 2957 2951 2952 2953 2956 2957 2958 2959 2957 2959 2959 2960 2958 2958 2956 2957 2959 2956 2952 2954 2957 2959 2956 2959 2964 2968 2968 2964 2963
2941 2938 2938 2939 2938 2938 2938 2939 2939 2940 2939 2941 2940 2940 2946 2947 2950 2949 2943 2943 2948 2946 2950 2950 2952 2953 2951 2951 2949 2947 2949 2952 2953 2949 2948 2945 2944 2944 2948 2942 2942 2950 2953 2951 2954 2955 2951
2934 2931 2931 2930 2932 2932 2931 2931 2930 2933 2935 2931 2933 2934 2936 2940 2944 2939 2938 2939 2942 2940 2943 2944 2947 2944 2945 2947 2943 2940 2943 2943 2941 2943 2938 2927 2925 2930 2929 2932 2934 2936 2933 2934 2936 2940 2943
2923 2921 2920 2921 2922 2923 2922 2923 2923 2925 2927 2928 2927 2925 2929 2932 2931 2932 2934 2933 2934 2935 2938 2939 2938 2938 2940 2940 2940 2937 2935 2936 2933 2936 2934 2931 2928 2924 2921 2912 2920 2925 2927 2922 2924 2926 2928
2912 2908 2908 2910 2911 2911 2911 2912 2914 2916 2920 2920 2923 2922 2921 2924 2925 2925 2926 2928 2926 2929 2934 2932 2934 2932 2932 2933 2934 2932 2933 2932 2932 2933 2934 2932 2923 2919 2921 2922 2914 2918 2917 2916 2914 2912 2915
2898 2898 2898 2898 2898 2898 2900 2902 2904 2908 2911 2914 2915 2915 2916 2916 2914 2917 2920 2920 2921 2925 2926 2928 2928 2928 2929 2928 2928 2929 2928 2926 2925 2923 2925 2924 2912 2908 2908 2910 2911 2908 2911 2913 2912 2909 2908
2886 2884 2884 2884 2884 2885 2887 2890 2894 2899 2903 2904 2906 2908 2911 2912 2910 2913 2913 2915 2914 2917 2920 2922 2923 2923 2923 2923 2926 2925 2925 2923 2918 2915 2914 2912 2909 2911 2907 2899 2900 2898 2898 2903 2902 2904 2904
2872 2871 2871 2871 2871 2872 2875 2878 2883 2888 2891 2893 2898 2901 2905 2904 2906 2908 2908 2910 2911 2913 2915 2917 2917 2918 2919 2920 2920 2918 2916 2916 2915 2912 2910 2907 2906 2905 2901 2900 2892 2887 2887 2885 2890 2897 2901
2857 2856 2857 2858 2860 2862 2864 2868 2872 2876 2880 2886 2891 2894 2898 2900 2902 2903 2905 2907 2908 2909 2910 2911 2911 2911 2914 2913 2911 2910 2908 2905 2904 2903 2902 2898 2899 2901 2896 2900 2893 2890 2879 2885 2890 2893 2891
2843 2842 2843 2845 2848 2852 2854 2858 2862 2867 2872 2878 2883 2889 2890 2894 2897 2899 2900 2902 2904 2905 2904 2904 2905 2905 2905 2907 2905 2901 2898 2893 2890 2890 2890 2888 2889 2892 2890 2888 2884 2880 2883 2888 2883 2885 2886
2830 2830 2832 2835 2839 2842 2845 2848 2855 2860 2866 2871 2876 2883 2886 2888 2893 2895 2897 2898 2899 2899 2899 2898 2899 2898 2901 2902 2901 2898 2895 2889 2886 2883 2880 2880 2880 2884 2884 2879 2874 2873 2876 2880 2885 2881 2880
2822 2823 2821 2827 2832 2835 2839 2845 2850 2855 2860 2865 2871 2878 2883 2885 2889 2892 2894 2895 2897 2897 2897 2897 2897 2898 2898 2898 2897 2895 2889 2886 2885 2881 2877 2874 2872 2873 2876 2877 2875 2873 2874 2877 2880 2883 2878
2819 2820 2821 2825 2828 2831 2837 2843 2847 2852 2857 2862 2868 2874 2879 2882 2886 2888 2891 2893 2894 2895 2896 2897 2897 2896 2896 2896 2895 2894 2892 2889 2887 2882 2880 2877 2871 2868 2870 2872 2871 2869 2871 2875 2875 2875 2878
2822 2822 2824 2826 2829 2833 2837 2841 2845 2851 2855 2860 2866 2870 2875 2881 2884 2886 2888 2890 2891 2892 2894 2894 2895 2894 2894 2894 2894 2893 2892 2890 2888 2884 2883 2880 2880 2877 2876 2872 2869 2867 2867 2870 2870 2873 2878